Location: Cazarilh
(42.9578°N, 0.5819°E)
Time: 22:33:42
(UTC+00:00)

METEOR-M - Pass Details

Date: 11 December 2019
Orbit: 817 x 819 km, 98.4° (Epoch: 22 January)

Event Time Altitude Azimuth Distance (km) Brightness Sun altitude
Rises 05:19:13 0° 14° (NNE) 3,357 7.3 -21.0°
Reaches altitude 10° 05:21:35 10° 15° (NNE) 2,421 6.6 -20.6°
Maximum altitude 05:26:57 81° 103° (ESE) 833 4.2 -19.6°
Drops below altitude 10° 05:32:17 10° 191° (SSW) 2,405 6.6 -18.7°
Sets 05:34:37 0° 193° (SSW) 3,333 7.3 -18.2°
